Location: Newark
(7.0858°N, 171.3717°E)
Time: 19:48:53
(UTC+00:00)

Tiros 1 - Pass Details

Date: 29 November 2020
Orbit: 630 x 663 km, 48.4° (Epoch: 18 January)

Event Time Altitude Azimuth Distance (km) Brightness Sun altitude
Rises 10:42:37 0° 352° (N) 2,935 - -61.8°
Reaches altitude 10° 10:46:30 10° 25° (NNE) 2,018 - -62.6°
Maximum altitude 10:48:11 12° 46° (NE) 1,899 - -62.9°
Drops below altitude 10° 10:49:52 10° 67° (ENE) 2,013 - -63.3°
Sets 10:53:43 0° 100° (E) 2,915 - -64.0°
